Location: Nianha
(10.8000°N, 4.6333°W)
Time: 19:39:36
(UTC+00:00)

DELTA 2 R/B (1) - Pass Details

Date: 14 November 2019
Orbit: 790 x 803 km, 39.6° (Epoch: 26 January)

Event Time Altitude Azimuth Distance (km) Brightness Sun altitude
Exits shadow 04:20:29 76° 26° (NNE) 814 3.5 -27.5°
Maximum altitude 04:20:36 76° 40° (NE) 813 3.5 -27.5°
Drops below altitude 10° 04:26:07 10° 126° (SE) 2,344 6.9 -26.2°
Sets 04:28:36 0° 128° (SE) 3,272 7.8 -25.6°
